This is the latest recevied weather packets stored in our database for station/object W8XLR-2. If no packets are shown the sender has not sent any weather packets the latest 10 day(s).
| Time | Temp. | Humidity | Pressure | Rain* | Wind** | Luminosity | Snow |
|---|---|---|---|---|---|---|---|
| 1777913208 | 20° C | 50% | 1010.7 hPa | 0 mm | - | - | - |
| 1777912609 | 19.44° C | 51% | 1010.9 hPa | 0 mm | - | - | - |
| 1777912118 | 18.89° C | 53% | 1011.1 hPa | 0 mm | - | - | - |
| 1777912009 | 18.89° C | 53% | 1011.1 hPa | 0 mm | - | - | - |
| 1777911414 | 18.89° C | 53% | 1011.1 hPa | 0 mm | - | - | - |
| 1777910808 | 18.33° C | 53% | 1011.3 hPa | 0 mm | - | - | - |
| 1777910210 | 18.33° C | 54% | 1011.6 hPa | 0 mm | - | - | - |
| 1777909679 | 18.33° C | 54% | 1011.6 hPa | 0 mm | - | - | - |
| 1777909610 | 18.33° C | 54% | 1011.6 hPa | 0 mm | - | - | - |
| 1777909008 | 17.78° C | 54% | 1011.6 hPa | 0 mm | - | - | - |
| 1777908453 | 17.78° C | 54% | 1011.6 hPa | 0 mm | - | - | - |
| 1777908408 | 17.78° C | 54% | 1011.6 hPa | 0 mm | - | - | - |
| 1777907815 | 17.78° C | 54% | 1011.6 hPa | 0 mm | - | - | - |
| 1777907212 | 17.22° C | 55% | 1011.9 hPa | 0 mm | - | - | - |
| 1777906608 | 16.67° C | 55% | 1011.8 hPa | 0 mm | - | - | - |
| 1777906008 | 16.67° C | 55% | 1011.8 hPa | 0 mm | - | - | - |
| 1777905412 | 16.11° C | 55% | 1011.8 hPa | 0 mm | - | - | - |
| 1777904808 | 15.56° C | 57% | 1011.7 hPa | 0 mm | - | - | - |
| 1777904208 | 15.56° C | 57% | 1011.7 hPa | 0 mm | - | - | - |
| 1777903608 | 15° C | 58% | 1011.9 hPa | 0 mm | - | - | - |
| 1777903060 | 15° C | 57% | 1012.2 hPa | 0 mm | - | - | - |
| 1777903008 | 15° C | 57% | 1012.2 hPa | 0 mm | - | - | - |
| 1777902410 | 15° C | 57% | 1012.2 hPa | 0 mm | - | - | - |
| 1777901809 | 14.44° C | 59% | 1012.3 hPa | 0 mm | - | - | - |
| 1777901406 | 13.89° C | 59% | 1012.3 hPa | 0 mm | - | - | - |
* Rain latest hour (hover to see other rain measurements)
** Current wind speed in m/s (hover to see current wind gust speed)